User: anonymous
Location: Bethera
(33.2010°N, 79.7880°W)
Time: 00:12:38
(UTC-04:00)
Language:

Cosmos 1833 Rocket - Orbit

View from above orbital plane
View from above orbital plane
View from above satellite
View from above satellite

Ground track
Ground track

The orbit data is extracted from the following two-line orbital elements,

1 17590U 87027B   14208.41074308  .00000090  00000-0  68857-4 0  7342
2 17590 071.0021 213.0354 0002962 124.4415 235.6989 14.16644566414591
Epoch (UTC): 27 July 2014 09:51:28
Eccentricity: 0.0002962
inclination: 71.0021°
perigee height: 834 km
apogee height: 839 km
right ascension of ascending node: 213.0354°
argument of perigee: 124.4415°
revolutions per day: 14.16644566
mean anomaly at epoch: 235.6989°
orbit number at epoch: 41459

The dashed part of the orbit path shows where the satellite is in the earth's shadow,  

DLR